Date String (YYYY-MM-DD hh:mm:ss) UTC,Instrument flags,absolute air pressure of the measurement (hPa),sample flow rate (lpm),inlet stack bypass flow (lpm),air temperature of the measurement (°C),ambient temperature measured by the external sensor (°C),aerosol sample conditioner tube jacket temperature (°C),OPC LED temperature (°C),internal box temperature (°C),relative humidity of the measurement (%),span deviation,mass concentration of particles derived from Lorenz-Mie calculation of OPC scattering (μg/m³),mass concentration of particles derived from Lorenz-Mie calculation of OPC scattering (μg/m³),mass concentration of particles derived from Lorenz-Mie calculation of OPC scattering (μg/m³)
DateTimeUTC,F1_M11,P_M11,Q1_M11,Q2_M11,T1_M11,T2_M11,T3_M11,T4_M11,T5_M11,U1_M11,ZSPAN_M11,X0_M11,X2_M11,X1_M11
2024-05-28 15:00:00,SystemResetWarning,0835.5,5.00,000.00,030.2,029.4,000.0,038.5,031.9,016.5,0000.0,0011.05,0003.29,0002.49
2024-05-28 15:01:00,SystemResetWarning,0835.5,5.00,000.00,030.2,029.4,000.0,038.5,031.9,016.8,0000.0,0011.03,0003.32,0002.48
2024-05-28 15:02:00,SystemResetWarning,0835.5,5.00,000.00,030.2,029.4,000.0,038.5,031.9,016.8,0000.0,0010.89,0003.35,0002.48
2024-05-28 15:03:00,SystemResetWarning,0835.5,5.00,000.00,030.2,029.4,000.0,038.5,031.9,016.9,0000.0,0011.42,0003.34,0002.47
2024-05-28 15:04:00,SystemResetWarning,0835.5,5.00,000.00,030.2,029.5,000.0,038.5,031.9,017.0,0000.0,0011.47,0003.32,0002.48
2024-05-28 15:05:00,SystemResetWarning,0835.5,5.00,000.00,030.2,029.5,000.0,038.5,031.9,016.9,0000.0,0010.88,0003.32,0002.47
2024-05-28 15:06:00,SystemResetWarning,0835.5,5.00,000.00,030.3,029.5,000.0,038.5,031.9,017.1,0000.0,0010.91,0003.33,0002.48
2024-05-28 15:07:00,SystemResetWarning,0835.5,5.00,000.00,030.3,029.5,000.0,038.6,031.9,017.0,0000.0,0010.12,0003.34,0002.47
2024-05-28 15:08:00,SystemResetWarning,0835.5,5.00,000.00,030.3,029.5,000.0,038.6,031.9,017.0,0000.0,0010.11,0003.34,0002.47
2024-05-28 15:09:00,SystemResetWarning,0835.5,5.01,000.00,030.3,029.5,000.0,038.6,031.9,017.5,0000.0,0010.52,0003.37,0002.48
2024-05-28 15:10:00,SystemResetWarning,0835.5,5.01,000.00,030.3,029.5,000.0,038.6,031.9,017.3,0000.0,0011.03,0003.38,0002.49
2024-05-28 15:11:00,SystemResetWarning,0835.5,5.00,000.00,030.3,029.5,000.0,038.6,032.0,016.9,0000.0,0011.04,0003.39,0002.48
2024-05-28 15:12:00,SystemResetWarning,0835.5,5.00,000.00,030.3,029.5,000.0,038.6,031.9,017.0,0000.0,0011.25,0003.38,0002.49
2024-05-28 15:13:00,SystemResetWarning,0835.5,4.99,000.00,030.3,029.5,000.0,038.6,031.9,017.1,0000.0,0011.11,0003.39,0002.52
2024-05-28 15:14:00,SystemResetWarning,0835.5,5.00,000.00,030.3,029.5,000.0,038.6,032.0,017.0,0000.0,0011.17,0003.42,0002.53
2024-05-28 15:15:00,SystemResetWarning,0835.5,5.00,000.00,030.3,029.5,000.0,038.6,031.9,017.1,0000.0,0012.33,0003.45,0002.54
2024-05-28 15:16:00,SystemResetWarning,0835.5,5.00,000.00,030.3,029.5,000.0,038.6,032.0,017.5,0000.0,0012.88,0003.49,0002.55
2024-05-28 15:17:00,SystemResetWarning,0835.6,5.01,000.00,030.3,029.5,000.0,038.6,032.0,017.3,0000.0,0013.24,0003.49,0002.55
2024-05-28 15:18:00,SystemResetWarning,0835.5,5.00,000.00,030.3,029.6,000.0,038.6,032.0,017.2,0000.0,0013.95,0003.50,0002.56
2024-05-28 15:19:00,SystemResetWarning,0835.5,5.00,000.00,030.4,029.6,000.0,038.6,032.0,017.6,0000.0,0013.82,0003.48,0002.57
2024-05-28 15:20:00,SystemResetWarning,0835.5,5.01,000.00,030.4,029.6,000.0,038.7,032.0,017.2,0000.0,0013.33,0003.44,0002.55
2024-05-28 15:21:00,SystemResetWarning,0835.5,5.00,000.00,030.4,029.6,000.0,038.7,032.0,017.0,0000.0,0012.91,0003.45,0002.56
2024-05-28 15:22:00,SystemResetWarning,0835.5,5.00,000.00,030.4,029.6,000.0,038.7,032.0,017.3,0000.0,0013.21,0003.47,0002.58
2024-05-28 15:23:00,SystemResetWarning,0835.5,4.99,000.00,030.4,029.6,000.0,038.7,032.0,017.6,0000.0,0012.91,0003.48,0002.58
2024-05-28 15:24:00,SystemResetWarning,0835.5,5.00,000.00,030.4,029.6,000.0,038.7,032.0,017.1,0000.0,0013.25,0003.49,0002.59
2024-05-28 15:25:00,SystemResetWarning,0835.5,5.00,000.00,030.4,029.6,000.0,038.7,032.0,017.4,0000.0,0013.82,0003.46,0002.59
2024-05-28 15:26:00,SystemResetWarning,0835.5,5.00,000.00,030.4,029.6,000.0,038.7,032.0,017.4,0000.0,0012.51,0003.44,0002.59
2024-05-28 15:27:00,SystemResetWarning,0835.5,5.01,000.00,030.4,029.6,000.0,038.7,032.0,017.6,0000.0,0012.03,0003.43,0002.60
2024-05-28 15:28:00,SystemResetWarning,0835.5,5.01,000.00,030.4,029.6,000.0,038.7,032.0,017.3,0000.0,0012.77,0003.42,0002.62
2024-05-28 15:29:00,SystemResetWarning,0835.5,5.00,000.00,030.4,029.6,000.0,038.7,032.0,017.5,0000.0,0012.50,0003.41,0002.63
2024-05-28 15:30:00,SystemResetWarning,0835.5,5.00,000.00,030.4,029.6,000.0,038.7,032.0,017.5,0000.0,0013.60,0003.40,0002.63
2024-05-28 15:31:00,SystemResetWarning,0835.5,4.99,000.00,030.4,029.6,000.0,038.7,032.0,017.6,0000.0,0014.78,0003.43,0002.63
2024-05-28 15:32:00,SystemResetWarning,0835.4,4.99,000.00,030.4,029.6,000.0,038.7,032.1,017.5,0000.0,0015.48,0003.41,0002.64
2024-05-28 15:33:00,SystemResetWarning,0835.5,5.00,000.00,030.4,029.7,000.0,038.7,032.1,017.2,0000.0,0014.60,0003.41,0002.64
2024-05-28 15:34:00,SystemResetWarning,0835.4,5.01,000.00,030.4,029.7,000.0,038.7,032.1,016.9,0000.0,0015.52,0003.40,0002.63
2024-05-28 15:35:00,SystemResetWarning,0835.3,4.99,000.00,030.4,029.7,000.0,038.7,032.1,016.9,0000.0,0015.71,0003.36,0002.62
2024-05-28 15:36:00,SystemResetWarning,0835.4,4.99,000.00,030.4,029.7,000.0,038.7,032.1,017.2,0000.0,0015.68,0003.35,0002.61
2024-05-28 15:37:00,SystemResetWarning,0835.4,5.00,000.00,030.4,029.7,000.0,038.7,032.1,017.4,0000.0,0015.95,0003.34,0002.60
2024-05-28 15:38:00,SystemResetWarning,0835.3,5.00,000.00,030.5,029.7,000.0,038.7,032.1,017.3,0000.0,0015.75,0003.31,0002.58
2024-05-28 15:39:00,SystemResetWarning,0835.4,5.00,000.00,030.5,029.7,000.0,038.7,032.1,017.5,0000.0,0016.16,0003.33,0002.56
2024-05-28 15:40:00,SystemResetWarning,0835.3,5.00,000.00,030.5,029.7,000.0,038.8,032.1,017.1,0000.0,0015.98,0003.34,0002.55
2024-05-28 15:41:00,SystemResetWarning,0835.3,5.00,000.00,030.5,029.7,000.0,038.8,032.1,017.1,0000.0,0016.06,0003.37,0002.56
2024-05-28 15:42:00,SystemResetWarning,0835.3,5.00,000.00,030.5,029.7,000.0,038.8,032.1,017.5,0000.0,0014.87,0003.38,0002.57
2024-05-28 15:43:00,SystemResetWarning,0835.4,5.00,000.00,030.5,029.7,000.0,038.8,032.1,017.7,0000.0,0014.35,0003.40,0002.58
2024-05-28 15:44:00,SystemResetWarning,0835.4,5.00,000.00,030.5,029.7,000.0,038.8,032.1,016.9,0000.0,0014.47,0003.39,0002.58
2024-05-28 15:45:00,SystemResetWarning,0835.5,5.00,000.00,030.5,029.7,000.0,038.8,032.1,017.0,0000.0,0013.71,0003.41,0002.59
2024-05-28 15:46:00,SystemResetWarning,0835.2,5.00,000.00,030.5,029.7,000.0,038.8,032.1,016.9,0000.0,0013.55,0003.44,0002.61
2024-05-28 15:47:00,SystemResetWarning,0835.3,5.00,000.00,030.5,029.7,000.0,038.8,032.1,017.0,0000.0,0013.67,0003.47,0002.62
2024-05-28 15:48:00,SystemResetWarning,0835.3,5.00,000.00,030.5,029.7,000.0,038.8,032.1,017.5,0000.0,0012.21,0003.49,0002.62
2024-05-28 15:49:00,SystemResetWarning,0835.3,5.00,000.00,030.5,029.7,000.0,038.8,032.2,017.3,0000.0,0012.00,0003.49,0002.64
2024-05-28 15:50:00,SystemResetWarning,0835.2,5.00,000.00,030.5,029.7,000.0,038.8,032.1,017.1,0000.0,0011.35,0003.47,0002.64
2024-05-28 15:51:00,SystemResetWarning,0835.3,5.00,000.00,030.5,029.8,000.0,038.8,032.2,017.3,0000.0,0010.79,0003.48,0002.67
2024-05-28 15:52:00,SystemResetWarning,0835.2,5.00,000.00,030.5,029.8,000.0,038.8,032.2,017.2,0000.0,0010.16,0003.47,0002.67
2024-05-28 15:53:00,SystemResetWarning,0835.2,5.00,000.00,030.5,029.8,000.0,038.8,032.2,017.2,0000.0,0009.57,0003.49,0002.68
2024-05-28 15:54:00,SystemResetWarning,0835.2,4.99,000.00,030.6,029.8,000.0,038.9,032.2,017.3,0000.0,0010.10,0003.51,0002.69
2024-05-28 15:55:00,SystemResetWarning,0835.2,5.00,000.00,030.6,029.8,000.0,038.9,032.2,017.7,0000.0,0010.60,0003.53,0002.69
2024-05-28 15:56:00,SystemResetWarning,0835.2,5.00,000.00,030.6,029.8,000.0,038.9,032.2,017.5,0000.0,0011.27,0003.51,0002.69
2024-05-28 15:57:00,SystemResetWarning,0835.2,5.01,000.00,030.6,029.8,000.0,038.9,032.2,017.7,0000.0,0013.35,0003.51,0002.68
2024-05-28 15:58:00,SystemResetWarning,0835.3,5.01,000.00,030.6,029.9,000.0,038.9,032.2,017.6,0000.0,0013.19,0003.51,0002.67
2024-05-28 15:59:00,SystemResetWarning,0835.3,5.00,000.00,030.6,029.9,000.0,038.9,032.2,017.3,0000.0,0013.29,0003.52,0002.68
